RH
19 18 18 18 17 17 17 16 15 15 14 13 13 14 17 17 16 14 13 10 9 10 8 9 9 8 10 10 11 11 17 35 50 65 59 28 12 10 5 6 16 22 24 26 24 29 41 43 40 38 41 46 49 51 55 73 83 79 85 93 95 99 98 94 91 88 88 94 95 93 92 85 83 84 77 79 74 60 59 64 69 72 72 76 78 83 89 88
19 18 18 18 18 17 17 17 16 15 14 14 13 12 14 16 15 14 13 10 9 9 8 9 8 9 10 9 12 13 27 52 69 76 49 13 8 9 6 11 19 20 17 20 17 20 36 42 42 44 45 48 48 49 59 69 74 83 94 92 92 98 94 92 92 90 93 95 96 96 93 85 82 86 81 80 75 61 64 73 76 83 83 81 82 86 87 86
19 19 19 18 18 18 17 17 16 16 15 14 13 12 13 14 15 14 13 11 11 10 10 9 8 10 9 11 12 16 42 63 59 51 27 5 6 7 8 13 16 16 14 15 13 13 21 28 37 42 44 45 44 53 65 67 73 83 87 89 94 93 88 94 95 92 96 96 97 98 95 88 82 85 87 84 73 61 68 77 81 89 90 87 85 85 86 85
20 20 20 20 19 18 18 17 17 16 15 15 14 13 12 13 14 14 13 12 12 14 13 11 11 9 9 12 12 26 52 49 27 21 18 7 5 9 11 13 13 12 12 12 13 13 15 24 33 36 38 39 44 60 70 68 73 79 77 85 92 87 85 91 95 94 96 96 96 96 92 85 81 86 91 84 70 66 68 66 73 86 87 87 86 84 85 84
23 23 22 22 20 19 18 17 17 16 15 15 14 14 12 12 13 13 13 12 15 18 17 16 15 11 11 12 17 40 49 32 18 17 19 12 6 12 12 13 16 13 11 12 14 15 17 25 32 33 33 41 57 67 70 68 67 73 76 83 91 90 88 92 97 95 92 94 93 94 91 83 81 84 88 83 72 75 74 62 65 77 79 82 84 83 83 83
26 26 25 24 22 21 19 18 17 16 16 15 15 14 13 12 12 13 12 12 18 19 18 20 19 14 12 15 29 46 37 24 19 15 17 17 9 9 10 13 18 15 12 13 15 18 25 30 33 36 32 39 62 67 64 65 60 66 75 81 90 93 93 96 98 95 91 93 92 93 92 86 85 80 84 86 75 77 78 67 63 69 73 76 79 80 81 82
28 27 27 26 25 24 22 20 18 16 16 15 15 14 13 13 11 11 11 13 17 19 19 20 20 17 13 23 40 42 32 24 18 15 16 17 13 9 8 15 19 17 14 13 20 30 34 35 34 37 32 26 43 60 61 60 56 63 74 80 87 91 97 98 95 93 92 94 94 91 86 85 85 77 79 82 76 79 76 66 63 66 70 72 76 78 78 80
27 27 27 26 26 25 24 22 20 17 16 15 15 14 13 13 11 10 11 13 16 18 19 20 22 18 18 32 37 30 29 24 16 18 15 12 17 13 11 20 22 16 13 10 20 35 33 33 33 29 28 16 29 57 58 57 59 62 74 82 88 94 100 97 89 87 87 94 96 90 85 84 87 84 81 79 77 77 68 62 65 67 70 73 75 76 76 77
27 26 26 26 26 25 25 24 21 19 17 16 15 14 13 12 11 9 10 13 15 19 18 21 22 16 24 40 32 19 19 18 15 20 16 12 15 16 16 21 22 15 11 12 18 28 26 26 27 21 21 16 32 57 55 58 63 63 74 84 92 99 98 94 90 90 90 94 94 92 91 89 91 86 78 76 77 72 64 66 68 68 72 73 73 74 74 76
27 27 27 26 26 25 25 24 23 21 18 16 15 14 13 12 11 8 10 13 15 18 17 20 22 20 33 40 27 18 14 12 16 19 16 14 14 18 21 19 19 13 12 21 24 24 22 22 22 18 17 17 37 57 51 54 61 68 81 87 94 98 96 95 96 96 95 92 90 95 97 96 96 86 78 79 80 72 68 71 70 69 72 71 70 71 72 73
29 29 28 28 27 26 25 24 23 22 19 17 15 14 13 12 10 8 9 13 16 18 17 19 20 26 39 34 21 18 14 12 16 16 15 15 13 16 20 17 15 11 14 25 25 20 19 21 19 17 16 18 40 55 49 54 65 73 80 87 94 94 94 99 100 99 96 90 90 95 95 96 95 90 86 83 82 77 74 74 70 72 73 69 69 69 70 71
31 30 29 29 28 27 26 24 23 22 20 17 15 13 12 11 9 8 9 13 18 17 16 18 19 31 41 32 25 19 12 14 16 15 15 13 11 11 12 12 10 9 13 20 21 16 15 18 16 15 12 15 38 53 54 61 69 74 77 89 94 90 94 98 100 99 95 94 93 92 92 92 91 89 85 77 82 84 79 77 69 71 73 68 68 67 68 68
31 30 30 29 28 27 26 25 23 21 19 16 14 12 11 10 8 8 10 15 19 17 18 19 22 38 40 27 21 15 12 15 14 14 15 11 11 11 7 9 10 9 10 12 16 15 15 18 15 14 13 21 42 50 55 60 66 78 83 92 93 87 91 94 98 98 93 96 94 88 90 93 86 82 80 75 83 84 79 80 71 69 72 68 68 66 65 65
31 30 30 29 28 27 25 24 22 21 19 15 13 12 10 9 8 8 12 17 20 18 21 26 33 46 44 27 16 14 17 18 15 14 14 12 12 14 12 10 11 12 11 10 16 17 17 18 15 14 13 26 48 54 62 65 71 84 82 89 94 82 83 90 98 98 92 97 92 84 90 93 83 77 77 76 83 82 76 78 73 69 71 69 66 62 62 62
29 30 29 29 28 26 25 24 22 20 18 15 14 14 11 9 8 9 14 20 22 22 28 35 43 48 40 27 17 17 22 22 20 17 14 15 13 16 16 13 12 13 13 13 16 18 18 17 13 15 17 29 52 63 70 69 73 80 74 89 94 78 85 94 95 95 92 97 89 80 90 94 83 76 74 76 86 84 75 78 77 71 70 71 66 61 63 60
26 28 27 28 27 25 25 23 21 19 16 15 16 17 15 12 12 15 22 26 26 30 38 45 51 44 27 19 19 19 23 23 22 20 17 16 14 16 16 15 16 15 16 17 17 16 15 16 12 17 29 42 59 71 78 78 78 76 71 87 90 80 91 91 90 93 90 97 91 82 92 94 83 75 73 80 89 85 78 80 82 76 71 70 65 61 65 62
24 24 25 27 26 25 24 22 21 18 16 16 19 25 24 19 21 26 32 32 33 39 44 48 51 41 21 14 17 18 20 21 18 19 19 16 15 16 15 17 19 17 18 16 16 16 12 13 13 15 24 34 51 67 72 74 79 78 71 79 82 81 89 84 88 96 89 91 94 90 92 90 86 81 78 86 92 86 80 81 83 81 73 68 64 60 62 63
25 23 23 24 24 25 23 22 20 16 17 18 24 37 37 35 36 37 39 39 42 46 48 51 44 30 20 14 15 17 18 17 16 18 19 17 16 16 14 14 14 14 14 11 11 13 11 13 15 15 15 21 43 58 50 48 64 75 73 77 79 78 85 86 86 92 89 88 91 95 95 89 86 85 83 89 93 85 79 81 82 80 74 70 69 64 62 64
32 28 24 22 23 24 22 22 19 16 18 19 31 49 48 48 49 45 48 49 42 33 31 41 35 21 20 18 15 16 14 14 15 16 18 18 16 18 17 11 10 10 9 11 10 10 11 13 14 16 14 18 34 41 30 31 51 66 68 74 77 73 82 91 88 88 89 90 94 96 95 90 83 84 88 93 94 85 79 83 84 80 77 75 73 71 69 68
41 36 30 25 23 22 22 21 18 17 19 18 32 47 41 38 39 35 45 52 44 27 19 29 33 24 20 17 15 14 12 13 14 15 18 19 17 19 17 11 11 12 10 13 11 10 12 12 14 16 14 16 20 23 21 24 37 51 57 62 68 68 73 82 85 88 88 87 93 93 89 87 82 83 89 92 94 89 84 86 86 82 80 78 77 75 75 73
47 44 39 31 24 21 22 20 17 18 19 18 24 30 26 26 28 26 30 35 34 30 24 25 28 25 19 16 16 15 14 16 15 14 14 16 16 16 16 13 12 13 15 14 12 15 15 13 15 14 14 14 13 16 18 16 20 30 41 51 59 65 69 74 82 90 87 81 86 92 89 85 80 81 88 92 92 90 87 86 84 82 79 80 80 77 77 79
49 48 45 37 27 22 21 18 17 20 19 18 20 21 22 23 26 27 25 25 24 24 26 25 24 24 20 17 17 15 17 19 16 14 13 13 13 12 14 17 16 16 16 13 15 21 19 15 14 12 13 14 12 15 14 15 17 16 24 33 39 54 63 67 85 94 84 76 81 90 90 85 82 82 87 92 91 88 87 84 81 78 78 80 81 81 81 81
48 47 46 43 33 23 20 17 18 22 19 19 23 22 22 23 27 28 24 25 24 21 25 27 26 26 23 19 17 17 19 20 17 14 12 11 12 12 14 17 18 17 15 12 15 19 18 16 15 13 14 13 12 14 13 14 15 14 20 20 21 44 47 43 75 95 79 72 78 86 89 87 83 80 82 86 89 90 89 88 86 79 76 77 77 80 83 81
47 46 46 44 37 25 19 18 21 22 19 21 22 21 21 23 29 28 22 24 24 23 24 23 25 28 25 18 15 19 22 21 19 15 12 11 12 12 14 17 18 16 15 15 16 16 16 15 13 12 13 13 12 14 14 13 14 14 17 17 17 36 42 43 74 91 78 74 78 81 84 84 82 78 79 82 84 87 90 92 92 86 79 75 73 75 80 80
47 46 46 44 40 28 19 22 24 18 19 23 20 18 20 22 28 25 22 26 25 22 20 17 22 23 19 16 16 19 21 18 18 15 11 10 12 12 13 16 16 16 17 16 15 16 16 13 12 12 12 13 12 14 14 12 15 13 13 16 10 19 52 76 87 87 85 86 80 71 71 82 89 84 80 81 81 83 88 91 90 89 87 81 78 76 77 81
47 47 45 44 42 28 20 26 23 16 19 20 16 18 18 21 26 21 24 34 28 21 17 13 17 15 12 17 19 18 18 17 16 14 10 9 9 11 13 15 14 16 18 17 16 17 16 13 12 13 13 14 13 14 15 12 14 13 12 14 10 24 66 92 86 80 89 89 76 67 66 78 87 80 77 81 83 84 85 88 90 90 92 88 83 78 76 80
48 47 44 45 42 31 26 25 22 20 18 14 15 17 16 18 20 15 24 35 26 17 15 12 12 11 11 15 17 17 18 17 14 11 11 9 9 9 12 14 14 14 16 17 18 17 15 13 13 13 13 14 15 14 13 12 13 13 14 19 24 42 71 86 77 75 86 81 76 78 69 70 80 77 80 85 84 85 84 84 89 92 93 91 88 84 78 77
49 46 44 45 41 35 31 28 28 25 16 14 17 15 14 17 18 18 23 26 18 13 12 11 10 9 11 13 14 15 15 14 13 12 11 9 9 9 10 14 14 14 15 14 16 17 14 12 12 13 13 13 14 14 13 12 10 12 26 40 46 54 68 75 68 70 81 71 72 86 69 65 85 85 87 93 86 87 86 80 83 89 93 92 91 90 84 78
48 46 44 43 40 35 33 32 31 23 15 16 16 13 14 15 16 21 24 21 15 13 11 10 10 9 12 14 13 13 11 11 12 12 11 9 9 9 10 14 14 13 13 12 15 15 12 14 14 11 12 13 13 13 11 9 9 17 39 53 51 53 60 61 61 67 73 63 66 82 71 66 84 88 87 89 85 84 82 79 82 85 88 90 90 91 90 87
48 46 43 43 41 36 34 32 24 17 17 16 14 15 14 20 29 26 22 19 13 13 12 10 10 11 13 14 13 13 11 11 12 11 11 11 10 9 10 13 14 14 15 16 15 13 11 18 22 15 11 12 11 12 10 10 18 31 47 52 48 52 53 58 73 69 59 64 69 74 73 62 69 86 89 85 85 83 76 79 88 88 87 89 90 92 92 91
47 43 42 42 39 37 36 29 19 15 17 16 16 16 11 24 43 34 19 17 13 13 14 12 12 13 13 15 14 13 12 12 13 12 12 12 10 11 11 12 14 18 23 20 14 13 12 12 18 20 18 13 8 9 10 11 22 36 48 51 52 58 59 64 78 66 57 69 66 64 70 62 61 74 76 75 82 82 75 76 84 88 88 88 90 93 94 91
45 41 41 39 36 37 34 25 19 16 16 17 18 22 19 19 29 29 22 17 15 15 15 13 14 15 13 13 14 14 13 12 12 12 14 13 13 14 12 15 17 17 24 24 15 14 14 10 11 15 19 15 6 9 11 8 16 33 45 49 52 62 67 70 72 67 68 66 54 58 66 64 68 68 64 69 71 72 78 77 78 83 84 86 89 92 94 93
43 41 38 34 32 35 30 24 21 17 18 21 22 29 34 25 22 27 25 17 13 14 14 14 15 17 15 13 15 15 12 13 13 12 14 13 14 15 11 16 17 12 19 23 17 16 16 15 13 9 11 13 8 9 10 9 16 32 39 38 50 62 65 68 67 61 63 60 57 63 65 69 72 60 63 75 66 65 81 82 79 80 79 83 90 91 93 95
43 39 36 31 28 30 30 24 21 21 24 23 22 26 27 25 30 34 29 21 16 14 15 17 18 17 15 15 16 15 12 13 13 12 14 13 14 16 14 14 14 14 17 18 17 19 18 19 17 11 9 10 9 8 10 11 15 24 26 23 40 56 52 54 56 51 55 64 67 61 60 75 71 53 62 77 73 75 84 87 86 86 86 88 91 92 92 93
42 36 34 32 29 30 28 22 22 28 30 28 30 32 27 29 33 30 28 24 19 19 18 17 18 17 17 17 16 14 12 13 14 13 14 15 16 19 18 14 14 16 16 17 21 20 16 19 18 12 10 8 8 10 12 13 11 15 17 14 22 35 41 46 48 53 63 72 77 66 64 81 76 62 72 79 80 84 86 87 87 88 93 93 91 92 91 91
40 36 34 30 34 34 24 19 24 27 29 29 28 28 28 30 26 21 25 22 17 20 20 18 19 16 16 18 16 13 10 12 14 13 14 16 15 17 17 14 14 13 12 16 23 19 15 17 16 12 11 9 9 11 10 9 12 15 14 14 18 24 42 54 52 60 66 62 71 75 76 88 76 61 72 78 79 83 84 84 84 88 94 93 93 93 91 93
41 41 38 33 38 36 23 23 26 27 31 27 24 31 33 26 20 23 29 23 17 20 21 21 21 16 14 17 16 13 11 12 13 13 17 18 15 15 15 13 13 12 10 12 17 18 14 14 14 11 9 9 11 11 10 10 14 16 13 16 21 20 34 51 57 66 64 56 72 81 82 91 79 66 75 80 79 81 82 85 85 90 93 91 94 95 93 96
44 46 44 39 39 34 28 29 29 33 35 27 35 53 46 27 20 22 23 18 17 20 21 23 22 17 14 15 15 13 12 14 13 15 19 17 15 15 12 12 12 11 11 10 12 16 13 13 18 16 11 11 13 11 10 11 11 14 15 15 20 22 25 33 47 61 57 58 77 82 81 85 80 80 82 78 80 82 83 87 87 88 91 90 93 95 95 97
49 51 43 35 35 33 32 32 36 40 32 26 43 48 33 28 29 26 22 19 19 20 22 25 22 17 16 15 14 13 12 13 13 14 16 14 15 15 11 12 11 10 12 10 12 16 14 13 18 18 11 9 13 12 11 13 10 11 15 13 20 36 37 30 38 52 57 65 73 70 75 79 76 80 78 72 78 81 82 88 86 85 89 90 91 93 94 96
59 56 44 32 31 33 34 35 42 44 31 31 48 42 27 29 28 25 25 21 19 21 22 24 20 16 18 16 14 13 12 13 13 12 13 12 14 12 10 11 9 10 12 10 12 15 14 13 16 20 16 10 13 14 12 13 12 13 16 15 21 33 34 28 31 45 61 76 75 65 67 71 70 74 72 68 73 77 79 84 83 84 88 89 89 90 92 94
69 57 47 33 27 33 39 40 44 48 43 44 49 43 35 33 26 24 26 22 22 20 18 21 19 17 18 15 14 13 12 13 13 12 13 11 11 11 9 10 10 10 12 12 12 12 13 15 18 20 15 10 14 17 14 11 11 15 17 19 26 29 30 34 33 40 57 72 76 69 64 65 70 71 66 64 69 73 75 77 80 84 86 87 89 88 90 93
66 56 49 34 30 35 40 50 56 55 54 51 44 38 37 36 34 32 27 22 23 21 19 20 19 18 18 15 15 14 12 13 12 12 11 9 11 11 9 10 10 9 14 14 12 17 22 19 18 20 18 16 17 18 21 17 13 17 16 22 32 30 34 44 41 39 48 58 64 61 54 57 69 76 71 64 67 71 72 74 77 82 85 87 88 88 90 92
62 59 47 32 34 37 38 53 63 56 53 50 40 34 32 32 34 32 26 24 24 21 19 18 17 17 16 13 14 13 12 13 13 12 12 12 12 10 12 14 11 10 12 11 14 24 27 18 15 22 31 35 26 19 24 23 16 17 19 25 31 28 32 44 48 51 52 54 56 48 44 53 67 82 81 69 67 71 73 75 75 81 86 86 87 89 90 93
73 69 55 40 34 34 38 49 56 56 56 49 38 33 31 29 29 27 26 27 25 22 20 18 17 16 13 13 13 13 13 14 14 12 12 12 10 10 15 16 17 17 14 17 22 19 17 25 28 22 23 31 26 17 22 24 18 19 25 28 30 34 35 34 43 53 51 52 52 43 47 59 65 78 83 73 71 72 71 75 76 80 86 86 88 91 91 92
80 74 67 55 40 37 43 47 50 53 54 49 44 41 36 32 29 26 28 29 27 25 24 23 20 15 14 15 14 15 14 13 14 14 13 13 11 12 16 19 24 27 29 42 40 17 15 33 32 19 18 25 22 18 27 33 24 19 24 24 25 32 31 28 39 44 39 47 51 46 53 57 56 72 81 74 73 72 71 76 77 78 82 85 87 90 92 92
75 72 71 66 55 51 54 54 54 57 57 55 53 47 38 35 33 28 28 29 27 27 26 24 23 21 20 21 20 19 17 14 16 17 17 17 15 16 21 23 25 29 45 61 49 26 27 33 27 25 24 20 21 29 39 40 25 17 19 19 23 32 31 31 38 38 40 49 52 56 60 45 41 66 82 79 76 73 72 76 78 78 80 84 87 89 91 91
76 75 77 78 71 66 66 64 63 66 65 59 55 48 40 39 38 31 29 29 29 30 28 25 27 28 28 30 27 24 24 23 20 18 20 26 27 26 27 26 25 33 50 52 35 27 28 23 25 32 24 16 24 36 41 32 18 17 19 17 24 34 32 29 31 37 47 46 44 63 72 47 39 63 79 81 78 73 73 75 75 78 80 83 88 90 91 90
75 73 76 79 79 78 76 71 69 71 66 59 61 56 43 40 40 38 37 36 31 30 30 31 33 32 32 32 29 28 32 31 27 26 30 36 38 35 29 24 25 35 42 35 29 34 27 16 24 28 20 20 23 27 36 31 18 19 21 16 23 33 28 24 32 41 44 35 35 60 70 50 42 57 70 77 75 67 69 71 71 76 81 85 89 91 91 90
81 82 82 78 81 85 80 71 71 72 64 62 71 66 49 43 45 43 41 40 38 34 32 36 38 34 32 34 36 39 38 35 33 35 38 39 39 38 31 25 27 33 34 29 32 36 25 22 35 29 17 21 23 23 31 27 17 19 20 18 23 30 27 24 35 43 38 34 44 59 60 47 43 52 61 69 70 65 67 71 73 78 84 87 89 90 90 89
92 96 94 89 91 90 83 74 70 68 63 62 67 62 50 47 50 47 41 40 44 41 35 39 42 36 34 38 42 41 38 36 36 36 39 41 40 41 38 32 30 34 35 31 32 32 21 25 43 34 16 20 29 27 25 21 19 18 19 22 23 25 26 25 37 44 34 36 56 64 55 47 50 62 66 67 72 72 72 74 76 79 85 88 88 89 88 88
95 94 94 98 98 89 82 76 67 66 69 68 64 59 55 53 52 50 46 40 39 40 40 43 41 38 40 43 42 38 35 38 39 36 35 36 35 36 36 33 30 33 36 33 33 35 29 30 45 39 21 23 29 24 20 21 20 15 17 24 23 23 27 28 38 45 37 42 62 62 48 42 52 69 73 71 74 72 70 74 76 82 87 86 86 88 87 87
95 92 91 97 98 89 82 76 69 69 72 70 64 60 58 54 49 50 55 49 39 37 41 43 39 40 47 46 39 37 37 38 39 34 32 32 33 32 32 33 31 29 33 35 34 39 38 34 40 37 26 27 32 28 23 19 17 21 27 26 22 25 30 28 35 42 40 45 52 43 34 41 57 68 71 74 76 71 69 73 75 82 89 86 84 85 84 85
Wind_Speed
17 17 17 17 17 17 17 17 17 16 16 15 15 15 15 14 12 10 9 8 8 8 7 7 7 7 8 9 11 13 14 13 8 5 7 6 7 10 6 11 14 12 12 13 13 12 7 4 4 4 3 1 1 1 2 2 1 2 2 1 1 2 3 3 4 2 1 0 0 3 3 3 2 4 2 2 4 5 4 4 5 7 8 9 15 24 26 24
18 18 17 18 18 18 18 17 17 17 16 16 15 15 15 14 13 11 10 9 7 7 7 7 6 7 8 9 11 12 14 12 6 6 8 4 6 12 11 13 15 14 13 13 13 12 7 3 4 5 3 1 0 1 2 1 1 2 2 1 3 4 3 2 4 1 2 2 1 2 3 3 3 4 3 2 3 6 5 4 6 9 9 11 18 23 23 23
19 18 18 18 19 19 18 18 18 18 17 16 16 15 14 14 13 12 11 9 7 7 7 6 6 7 7 9 10 11 12 8 3 4 2 2 11 16 15 13 13 13 12 10 9 8 7 7 9 7 3 0 1 1 1 1 2 2 3 1 4 4 2 2 4 2 3 2 2 2 3 2 2 2 3 2 5 6 5 4 5 8 9 10 13 18 21 21
20 19 19 20 20 19 19 19 19 18 18 17 16 16 15 14 14 12 12 10 7 7 6 6 6 6 6 8 9 10 9 3 1 2 2 4 14 18 16 13 10 9 10 7 7 7 7 9 10 5 3 1 2 2 2 3 3 2 3 3 4 1 1 2 5 3 3 2 2 3 2 2 3 2 2 3 6 3 4 3 5 10 13 13 12 15 18 17
21 21 21 21 20 20 20 20 19 19 19 18 17 17 15 15 14 13 12 10 7 6 6 5 5 5 6 7 7 8 5 3 2 3 1 4 13 18 15 12 9 9 11 8 8 9 7 6 4 3 2 1 1 2 2 5 4 1 3 4 2 2 2 3 5 4 2 1 2 3 3 2 2 1 3 4 5 3 4 2 5 12 14 15 14 14 15 14
22 22 22 22 21 21 21 20 20 20 19 19 18 17 16 15 14 14 12 9 7 6 6 5 4 5 5 5 6 5 3 1 4 3 4 4 11 16 15 12 10 10 11 9 8 8 5 4 3 2 1 1 2 3 3 4 4 1 2 1 2 3 3 2 3 3 1 1 1 2 3 3 2 2 2 3 2 4 4 3 7 10 12 16 15 13 13 12
22 23 23 22 22 22 21 21 21 20 20 19 18 18 16 15 14 14 12 9 7 6 5 4 4 4 4 4 3 4 3 3 6 4 7 6 10 15 16 13 11 11 11 9 7 5 4 5 2 3 2 1 3 4 2 3 3 2 1 2 3 3 4 3 3 3 1 2 2 1 3 3 2 1 2 3 3 5 1 6 10 10 12 15 13 12 12 12
23 24 24 23 23 23 22 22 21 21 20 19 19 18 16 15 14 13 11 8 6 5 4 3 2 2 3 2 1 4 2 4 4 4 8 8 10 15 17 14 11 12 11 10 8 6 5 5 4 3 2 3 3 3 3 4 2 2 1 1 3 3 4 4 5 4 3 2 3 3 3 2 2 1 2 4 6 5 5 11 11 11 11 11 11 11 11 10
24 24 24 25 24 24 23 23 22 21 21 20 19 18 17 15 14 13 10 7 5 4 3 2 0 1 2 0 2 3 2 3 3 4 9 8 10 16 18 14 12 12 10 10 10 8 5 4 4 3 2 4 2 4 5 4 1 2 3 2 4 3 4 5 4 3 3 1 3 3 1 2 2 2 2 3 6 4 8 11 11 12 10 9 9 10 10 10
25 25 25 25 25 25 25 24 23 22 21 21 20 19 17 15 14 12 9 6 3 2 2 0 2 1 1 0 5 2 4 3 2 5 9 8 9 15 17 13 13 13 10 9 10 8 6 5 3 3 2 2 1 4 4 4 1 3 6 5 5 4 3 4 4 3 3 1 3 2 1 3 3 3 1 2 5 3 8 9 9 11 10 9 8 8 9 9
26 26 26 26 26 26 26 25 25 24 22 21 20 19 17 16 14 10 7 4 1 0 1 2 3 2 2 2 3 2 4 3 3 8 8 8 7 11 15 13 14 15 12 8 10 12 9 6 3 3 1 0 2 4 3 4 5 5 7 6 6 6 4 3 3 2 2 2 2 1 0 2 3 2 2 3 3 4 7 7 7 8 8 9 8 7 7 7
26 27 27 27 27 27 26 26 25 24 23 22 21 20 18 16 13 9 6 3 2 2 3 3 4 3 2 1 3 6 3 1 7 9 8 7 4 7 11 12 13 15 13 8 9 15 13 6 3 2 2 1 2 3 3 5 6 4 5 5 4 6 3 1 1 1 1 2 2 2 2 2 1 2 4 3 3 4 6 5 7 7 7 7 7 7 6 7
27 27 27 28 27 27 27 27 26 25 24 23 22 21 18 15 12 7 5 3 3 4 5 5 5 3 2 2 4 4 2 2 8 10 9 8 4 4 8 10 11 12 13 9 5 6 9 8 2 1 2 3 3 3 4 5 4 3 4 4 2 5 4 2 1 0 1 2 2 3 1 3 3 4 3 3 3 3 5 5 7 6 6 7 7 7 6 8
28 28 28 29 28 28 28 27 26 25 24 24 22 20 17 13 9 6 4 4 5 5 6 6 5 3 2 4 4 2 4 5 9 12 12 11 8 4 6 10 11 12 12 11 6 2 3 4 3 2 1 3 3 3 4 4 3 2 3 2 2 2 4 3 1 3 1 2 2 4 1 4 5 3 2 3 4 1 4 5 6 7 6 6 7 7 7 8
29 29 29 29 29 28 28 27 27 25 24 23 20 17 14 10 6 5 5 5 5 6 6 5 4 3 1 6 5 2 5 5 9 15 14 13 11 6 7 12 12 13 12 11 8 5 4 2 0 0 1 1 5 5 3 3 2 2 2 2 2 1 3 4 3 6 3 1 1 3 1 4 5 3 2 4 3 3 3 3 5 7 8 8 7 7 7 7
30 30 30 30 30 29 28 28 26 25 24 21 17 15 10 5 2 5 6 6 6 6 5 3 2 2 1 3 1 0 4 5 6 11 15 16 13 6 6 11 10 9 10 9 7 7 5 1 1 1 2 3 5 5 3 3 3 3 2 1 1 1 2 3 2 5 4 2 1 1 1 2 4 4 3 3 3 3 4 4 4 6 8 9 7 7 7 6
30 31 31 30 30 29 28 28 26 25 23 18 14 10 6 3 4 7 7 7 7 6 4 2 1 1 2 2 1 2 4 6 5 8 15 18 15 8 4 5 4 4 5 3 3 4 2 1 1 0 3 3 3 4 4 2 3 3 1 1 3 2 1 1 1 4 5 4 1 2 1 2 3 4 4 2 3 4 5 5 4 4 6 7 7 7 8 8
31 32 31 31 31 30 29 27 25 25 20 14 11 6 7 8 8 7 8 9 7 4 2 1 1 1 2 3 2 3 2 3 4 6 13 16 16 12 3 2 2 3 3 2 0 1 1 2 2 1 3 3 2 4 3 3 3 3 3 2 3 2 2 3 2 4 7 5 3 5 4 6 6 5 3 2 3 4 6 5 4 3 5 6 6 7 7 8
33 33 32 33 32 30 30 26 26 23 16 12 7 5 8 9 8 5 7 7 4 1 0 2 2 2 2 4 3 4 5 3 3 6 11 13 12 10 3 2 3 4 3 1 1 2 1 2 3 1 0 1 4 5 6 6 6 6 6 4 3 3 3 4 3 5 8 5 4 7 5 5 6 4 3 3 3 4 4 3 3 3 3 5 5 5 6 7
35 35 34 34 32 31 30 26 26 20 12 12 4 5 5 4 4 3 1 2 4 4 3 4 6 3 3 5 4 4 4 1 3 4 9 12 9 7 1 2 4 5 3 3 1 1 3 0 3 4 5 5 6 7 6 3 4 5 4 3 3 4 3 4 2 4 7 5 4 6 4 4 4 4 3 4 4 4 4 3 4 4 3 4 6 5 6 6
38 38 37 36 33 32 29 27 25 14 10 12 4 3 2 2 2 3 3 4 7 7 8 9 8 6 6 4 0 2 2 1 2 1 6 11 10 7 1 1 4 3 1 3 1 3 4 2 7 5 7 7 6 5 4 2 1 2 3 2 3 4 4 4 2 5 6 3 3 4 3 6 5 4 3 4 5 5 5 4 4 5 5 4 5 6 6 4
40 41 41 38 35 33 29 28 21 8 8 11 4 4 3 2 1 4 2 4 8 7 10 8 4 7 8 5 3 1 4 2 4 3 5 9 6 4 1 4 5 2 2 1 2 5 4 4 9 4 6 5 3 4 3 3 3 1 2 1 3 3 3 2 1 3 5 2 2 4 5 5 4 3 3 5 5 4 5 5 5 7 6 4 5 6 6 4
40 42 43 40 38 33 29 27 14 4 11 10 3 6 2 4 7 3 4 1 7 4 5 5 4 6 6 6 7 4 3 2 3 4 8 10 3 4 4 5 5 3 2 3 4 1 1 6 9 5 8 6 2 3 5 3 3 2 4 2 4 4 3 2 2 2 4 2 2 4 3 4 3 2 2 4 4 2 3 5 4 5 7 7 6 6 6 7
41 42 43 43 40 34 30 22 5 4 16 9 5 5 2 9 8 2 5 1 5 4 3 7 5 5 6 4 6 9 3 4 4 4 9 12 4 3 5 4 5 3 3 6 7 5 6 9 5 3 5 6 4 3 5 3 3 2 5 5 6 5 5 3 2 3 1 1 2 5 2 4 2 2 3 3 2 1 2 4 3 4 6 6 4 4 5 6
43 42 43 44 40 36 28 10 3 10 17 3 6 2 7 12 10 3 4 3 3 6 3 4 2 5 8 5 8 10 3 2 5 5 9 12 7 4 2 2 4 3 5 5 6 4 9 8 3 1 4 4 5 6 5 6 3 4 5 11 12 8 5 5 7 5 3 2 2 4 2 5 3 2 4 3 2 3 2 3 5 4 5 5 4 5 6 5
43 42 43 44 41 37 21 2 2 15 12 1 2 7 10 12 9 4 4 5 2 5 2 1 1 4 7 5 6 6 4 3 6 6 8 11 9 5 2 1 1 3 5 5 4 3 5 3 4 5 6 5 5 6 6 8 4 3 5 10 11 7 8 9 9 5 2 2 2 3 4 3 5 3 5 3 3 5 3 3 6 5 4 5 6 7 6 6
43 43 43 43 42 34 14 3 9 12 4 1 4 8 9 11 6 4 3 5 2 2 1 1 1 5 6 4 6 6 3 4 2 5 7 12 9 3 2 3 0 3 4 4 1 2 3 2 3 4 3 4 5 5 6 8 7 3 5 5 7 8 9 11 9 4 2 2 3 3 3 0 4 4 3 2 4 4 4 5 6 4 5 5 6 6 7 8
43 43 43 42 40 30 12 7 10 5 2 4 7 8 9 9 3 3 4 3 2 1 2 1 0 4 2 3 6 4 2 2 3 2 4 12 10 3 1 7 4 4 3 5 3 5 3 5 4 4 4 3 6 5 8 11 6 5 2 6 6 7 7 7 6 3 1 3 3 4 1 1 4 5 3 3 3 5 6 8 7 6 6 6 6 6 6 7
43 43 43 42 38 25 9 7 6 3 4 6 7 9 9 5 1 4 4 1 1 1 1 1 1 2 3 2 3 2 1 1 2 2 1 8 6 2 3 6 5 4 1 4 5 7 3 5 6 5 3 5 7 5 11 12 6 3 6 11 8 7 7 6 5 3 3 3 2 5 2 2 4 5 1 3 2 6 6 6 6 6 6 6 5 5 5 5
43 42 43 41 33 18 8 9 7 3 4 6 8 9 5 2 4 4 1 1 0 1 0 1 0 1 4 4 3 3 1 2 0 1 3 2 0 3 2 2 5 3 1 2 4 7 5 2 4 4 4 6 4 3 7 10 8 6 8 10 9 6 5 4 3 4 3 2 4 6 5 4 2 4 2 3 4 5 4 4 4 5 5 5 5 4 5 4
43 42 41 37 27 12 6 5 2 1 5 7 8 6 3 3 5 4 2 2 1 1 2 1 1 2 5 5 2 2 1 2 1 4 2 1 2 3 0 1 3 3 3 5 4 6 7 2 2 4 5 5 3 4 2 3 7 6 5 6 6 4 4 4 4 3 2 4 5 4 4 3 1 5 4 4 5 5 5 5 6 6 6 5 5 4 4 4
43 41 38 32 22 10 7 4 2 4 8 7 5 4 4 2 1 3 3 3 1 1 1 0 0 2 2 2 2 2 2 2 1 3 4 4 3 3 4 4 3 2 3 3 3 5 6 4 3 4 3 5 4 3 4 3 4 6 5 5 5 3 3 3 2 1 2 5 4 4 4 2 4 6 4 6 6 5 6 6 7 8 7 6 4 4 4 3
42 39 35 27 16 9 7 6 6 7 7 3 3 4 6 3 2 4 3 2 0 2 1 1 2 2 2 3 2 3 2 2 2 2 2 3 2 3 3 4 6 3 0 3 1 4 4 5 2 1 3 3 7 6 2 1 2 5 5 5 5 3 3 0 2 2 2 3 2 4 5 1 5 4 3 6 7 6 5 4 5 7 7 6 4 4 4 3
41 36 31 21 11 8 5 4 7 5 3 1 4 5 5 2 3 3 3 3 2 2 1 0 4 3 2 2 3 4 3 3 2 3 1 3 2 3 3 3 4 4 3 2 1 1 0 5 3 5 2 2 6 6 6 6 5 4 4 5 5 5 4 3 3 3 2 1 2 1 3 2 2 2 4 6 5 4 3 3 4 4 4 5 4 3 4 3
38 33 25 14 9 9 5 3 6 3 1 3 6 4 3 3 3 1 2 3 2 3 3 2 1 3 2 3 3 4 4 3 1 4 2 2 3 4 3 4 4 4 4 2 3 2 2 5 8 4 1 6 6 4 5 7 4 2 1 4 3 4 5 3 3 5 4 2 1 1 2 3 3 4 5 3 0 2 3 4 5 5 4 5 4 3 4 3
37 31 18 10 10 9 4 1 4 3 2 5 5 2 3 3 2 2 2 1 1 2 5 4 3 4 2 3 2 2 1 1 2 2 0 2 3 4 4 4 6 7 6 4 3 1 1 5 7 4 1 5 7 5 5 3 3 2 2 3 4 4 7 6 1 0 3 3 1 2 2 4 3 3 3 3 2 2 4 4 5 5 5 6 4 4 4 3
36 27 12 9 13 8 1 2 3 2 3 6 4 3 4 3 3 3 2 0 1 2 4 3 1 1 0 1 3 2 0 0 1 2 1 2 2 4 5 3 4 10 10 5 3 3 2 5 6 3 5 6 3 6 4 2 4 5 3 6 3 3 5 5 3 3 4 1 2 2 2 4 2 2 3 2 2 3 2 4 4 4 5 5 5 5 4 4
28 18 7 9 14 4 3 3 3 3 4 5 1 3 3 2 2 3 1 1 1 2 3 1 3 0 2 1 2 3 1 1 2 2 3 2 3 3 4 2 3 8 10 6 2 3 2 3 7 4 5 6 2 5 4 5 3 4 4 4 4 3 1 2 3 2 2 1 3 3 3 3 3 4 3 5 7 7 4 3 5 4 4 5 4 5 4 4
15 8 3 8 15 6 4 2 3 4 5 3 1 2 2 3 3 3 2 0 1 1 1 3 3 1 1 3 3 3 1 3 4 2 2 3 3 3 3 3 3 6 9 10 6 3 3 1 6 5 4 3 4 3 2 2 3 4 3 2 2 3 4 2 3 3 3 3 2 2 3 3 6 5 7 10 10 8 7 5 5 6 6 5 5 5 4 4
5 4 2 4 16 9 1 4 5 4 3 2 4 2 2 2 4 4 4 2 1 2 2 3 3 1 2 2 3 2 1 3 5 3 2 3 3 4 3 3 2 1 4 7 5 2 2 2 4 6 4 1 0 1 6 7 3 3 2 1 1 2 3 2 2 2 4 4 3 1 1 5 6 4 8 12 10 10 10 8 7 6 6 5 5 5 4 4
3 3 4 2 13 7 2 3 3 3 1 2 3 2 2 2 3 5 5 4 4 3 3 4 4 3 2 2 3 2 1 1 3 2 1 3 3 2 2 3 3 2 3 3 1 2 3 3 3 4 3 1 4 4 5 8 7 6 5 5 3 4 4 3 1 1 2 4 3 4 2 6 6 3 7 9 10 10 9 9 8 6 7 6 5 5 5 4
1 2 5 7 12 4 3 2 1 2 2 2 2 2 2 2 2 3 4 2 4 4 2 2 4 4 4 4 3 3 3 1 2 2 2 4 5 4 3 2 3 4 5 2 3 3 3 4 2 4 4 6 7 5 3 4 4 5 3 3 4 4 5 5 3 3 2 3 2 3 1 6 5 3 4 5 8 9 8 9 8 7 7 6 5 4 4 4
1 4 9 9 11 4 3 1 3 0 1 3 2 2 2 2 2 2 3 1 2 2 1 2 4 4 4 5 4 3 3 2 3 3 3 3 4 6 5 1 2 4 4 1 2 1 2 3 2 4 4 5 6 4 1 2 6 5 1 2 4 3 3 5 5 4 4 3 2 3 1 6 5 4 3 3 6 7 8 8 9 7 6 5 6 5 4 4
1 5 6 7 11 5 3 2 2 2 3 2 2 3 3 1 2 2 2 3 2 1 1 3 3 3 4 4 4 4 5 3 2 3 3 2 2 4 3 2 2 3 3 3 2 2 3 2 3 1 2 5 5 3 4 5 1 2 2 2 4 4 6 5 2 4 2 4 5 4 3 6 5 4 2 4 6 6 7 7 8 8 6 6 5 4 5 5
3 2 3 7 10 6 3 2 1 1 2 3 2 3 2 2 3 2 3 4 2 1 2 4 3 3 2 0 1 1 3 2 2 2 2 2 2 2 2 2 2 2 3 4 4 3 3 3 4 5 4 4 3 3 3 3 2 1 2 3 3 5 8 5 3 5 2 3 5 5 4 6 5 4 4 5 6 6 6 5 5 6 6 7 6 5 5 5
2 1 3 5 7 5 2 1 3 2 1 3 3 3 1 1 4 3 2 2 2 2 2 2 3 2 3 3 3 2 3 1 1 1 1 2 3 2 2 3 1 2 6 3 3 4 3 2 4 7 8 8 8 8 6 4 4 2 3 5 4 4 6 6 5 3 4 4 3 5 5 3 5 2 2 4 6 7 6 6 5 5 5 6 6 6 5 5
2 1 3 3 4 4 3 3 5 3 2 2 2 2 1 1 3 3 3 1 3 4 2 1 4 5 3 4 2 2 4 2 1 0 1 1 4 4 4 2 1 6 8 2 4 4 3 2 3 7 8 9 8 7 5 4 7 7 7 7 5 5 6 7 5 5 6 7 3 7 5 4 6 6 7 7 7 8 8 8 8 7 7 6 5 6 6 5
1 1 1 1 2 2 2 4 5 5 4 3 1 2 2 2 1 3 4 3 4 4 3 3 5 6 4 3 1 2 3 3 2 2 1 1 2 4 4 2 1 5 6 3 1 3 5 2 3 5 6 7 6 5 5 3 4 6 9 9 8 7 8 8 6 7 9 8 6 7 9 8 8 7 10 11 11 12 12 11 9 7 6 6 6 7 7 7
1 1 2 2 0 1 3 5 5 5 5 3 2 2 2 2 3 2 3 3 4 4 3 2 6 9 8 3 2 2 1 1 1 2 2 1 1 2 2 2 2 3 5 4 3 1 4 1 3 4 4 6 5 5 3 2 2 1 5 8 9 10 11 8 5 7 8 5 3 7 11 10 8 7 10 10 9 9 8 7 7 7 8 7 8 8 8 8
2 1 3 3 2 3 3 3 3 4 4 3 2 2 2 2 4 4 4 1 2 4 3 3 7 9 7 4 3 4 0 1 1 2 2 1 1 1 1 2 2 3 5 3 3 2 2 1 2 2 1 5 5 2 4 3 3 3 2 3 6 8 7 4 3 4 4 1 2 7 7 8 7 4 5 5 6 5 6 7 8 8 9 9 9 8 8 8
3 3 2 2 2 3 2 2 2 3 3 3 1 3 3 3 4 5 5 3 2 0 4 5 8 7 4 5 4 2 2 3 4 7 5 3 2 2 2 2 3 2 5 2 1 3 3 1 2 4 2 4 6 3 1 3 1 2 2 3 6 7 5 4 4 5 6 5 6 7 4 6 6 2 6 6 7 8 8 9 8 7 9 10 10 10 9 9
6 4 2 1 2 3 2 2 2 1 2 1 2 4 4 4 6 5 4 3 1 3 5 6 6 4 3 5 4 4 7 6 8 10 6 5 5 4 3 3 3 2 1 1 1 1 2 2 2 3 2 4 6 4 3 5 3 3 5 6 8 5 4 4 2 4 7 7 7 5 5 6 5 6 7 7 7 8 9 10 9 8 9 10 10 11 10 9
Wind_Direction
13 13 11 11 10 9 8 6 6 4 4 1 359 358 356 355 349 346 339 330 324 326 332 324 322 318 314 316 314 314 319 323 316 252 218 252 223 204 183 166 175 169 156 150 150 143 127 145 190 176 130 152 156 161 186 150 115 78 84 105 258 217 203 199 162 185 283 62 279 314 340 68 29 336 345 35 74 114 106 52 64 52 51 93 119 132 140 145
10 10 9 9 9 8 7 6 6 4 3 1 0 358 355 355 350 349 343 337 330 326 331 325 321 315 312 314 312 315 323 325 308 249 236 240 173 177 166 158 173 175 163 151 156 147 127 190 195 145 116 110 154 171 199 192 133 118 113 141 243 215 212 161 128 88 22 4 335 310 317 68 62 331 358 53 127 135 104 61 78 77 78 100 117 130 140 146
7 8 8 8 7 6 5 4 4 3 2 1 360 358 355 354 351 349 347 344 338 333 331 324 319 312 311 307 309 320 322 326 307 274 290 157 155 158 156 158 168 179 182 173 176 165 144 176 172 142 107 294 257 144 150 230 190 159 114 190 249 221 221 100 107 84 65 7 328 312 305 35 36 347 12 98 154 158 143 135 113 113 121 122 127 135 144 150
6 8 7 6 5 4 3 2 2 1 1 0 359 358 354 352 351 349 350 348 343 339 331 324 316 306 306 304 311 323 324 343 255 282 36 122 153 155 160 162 151 164 187 175 172 179 152 151 155 132 96 265 296 95 150 206 185 163 142 198 245 195 31 50 92 79 59 33 321 316 330 13 356 0 16 113 140 198 201 168 150 150 145 139 143 143 149 155
6 7 6 5 4 3 2 0 -0 360 360 359 358 356 353 351 348 347 351 350 348 343 334 326 313 305 300 307 319 326 345 66 249 253 122 132 156 163 170 169 151 154 169 148 142 168 158 133 118 72 66 256 314 90 200 203 160 149 195 196 209 115 50 18 75 78 48 25 333 338 9 356 342 36 22 84 127 218 227 190 148 153 151 147 150 148 152 160
5 4 3 2 2 2 1 359 358 359 358 357 356 354 351 349 345 345 349 351 353 345 337 328 314 310 299 315 333 338 33 119 262 226 177 157 161 175 182 178 164 161 165 151 144 157 146 95 83 103 112 283 192 196 231 190 144 133 263 144 115 102 68 22 63 76 52 34 298 326 16 339 356 47 16 65 110 259 243 170 136 146 150 145 147 151 156 166
3 2 0 360 360 360 359 358 356 356 356 354 352 351 349 346 343 341 345 350 352 348 339 330 324 309 305 325 343 19 70 246 265 198 180 174 172 183 187 183 171 168 171 162 147 139 123 107 134 168 139 269 217 217 222 151 124 118 309 35 88 72 65 67 83 87 37 19 287 15 50 333 349 40 356 23 329 297 246 125 125 136 143 143 148 157 162 169
1 359 358 357 357 356 356 355 354 354 353 352 349 348 346 343 339 336 341 346 348 354 338 331 342 296 320 333 326 14 22 256 280 207 190 179 181 189 185 178 174 175 175 176 168 152 142 142 186 173 121 265 212 178 163 114 77 138 133 56 88 66 65 71 79 78 42 19 318 24 80 283 309 20 342 354 331 336 104 119 123 132 141 148 157 163 165 171
360 358 357 356 354 354 353 352 352 351 351 349 346 344 342 338 334 332 335 339 344 355 336 337 341 246 316 333 70 12 282 261 309 214 192 186 190 195 189 179 179 178 171 183 185 171 173 178 201 178 172 267 173 147 156 125 260 178 111 81 83 57 55 62 57 43 27 22 332 2 43 290 334 12 350 338 327 0 108 121 128 137 147 159 166 169 169 171
359 357 356 354 353 352 350 349 349 349 348 347 343 340 337 333 328 325 325 326 337 345 333 332 173 144 180 47 61 24 286 310 296 179 181 197 195 192 189 187 186 179 168 177 188 180 186 196 185 156 170 268 144 135 152 144 163 110 97 78 71 59 48 57 49 13 339 3 7 2 322 328 10 39 4 302 329 40 107 118 136 147 154 166 173 174 173 179
358 356 354 353 352 350 349 348 346 347 346 344 340 335 331 326 321 316 311 303 291 171 176 166 174 146 146 109 84 232 283 341 177 167 180 203 201 194 191 194 189 178 167 168 201 205 206 210 156 111 129 1 125 119 115 114 97 102 107 76 41 38 31 33 47 357 332 39 7 352 123 6 23 37 233 257 340 61 111 126 152 157 161 170 176 179 177 186
357 354 353 352 351 349 348 346 345 345 344 342 338 332 326 320 313 301 291 271 216 168 172 166 178 177 120 142 197 224 274 335 178 178 193 197 194 207 198 198 191 182 178 173 215 217 222 233 104 73 259 113 103 123 113 103 98 94 94 79 26 23 5 323 83 309 3 70 337 353 42 2 346 275 259 265 351 64 109 147 172 170 173 175 176 183 185 186
355 353 352 350 349 348 347 345 344 344 343 341 335 329 321 312 305 286 262 232 196 172 170 164 180 183 77 274 232 201 231 225 195 197 203 192 169 191 200 200 196 198 203 201 222 230 237 243 173 187 231 112 98 136 113 89 89 72 63 80 51 18 325 258 144 268 25 45 17 49 21 297 261 260 274 290 330 85 130 178 192 184 181 181 182 187 191 186
354 352 351 349 348 347 346 344 344 344 342 339 334 327 318 308 297 261 230 210 190 173 165 159 178 168 119 266 259 195 219 223 213 214 208 197 173 159 200 204 204 211 219 224 239 306 290 249 221 247 266 117 122 111 79 52 49 78 77 51 46 26 303 294 167 158 105 2 42 77 62 278 278 288 281 272 308 12 171 185 192 198 188 185 191 188 189 190
353 351 350 349 348 347 346 344 344 344 342 338 334 329 321 309 281 230 197 183 174 162 152 146 165 142 57 284 274 212 213 210 223 223 217 208 184 165 200 202 209 216 223 236 243 273 293 277 223 193 341 44 96 89 57 39 29 70 108 329 354 136 277 306 230 179 148 6 58 83 91 278 288 300 265 248 284 292 245 205 185 196 193 191 198 191 189 195
353 351 350 348 347 347 346 345 344 344 341 338 338 336 332 320 242 172 159 157 152 146 133 124 148 126 22 285 281 224 218 206 232 225 218 218 203 188 193 192 206 217 222 240 244 266 278 240 100 132 95 58 86 94 65 44 1 359 88 252 284 168 272 313 242 202 160 112 76 85 140 273 296 303 298 252 218 226 248 247 200 191 195 194 197 197 195 197
354 352 349 348 347 346 346 345 344 343 340 340 345 350 4 47 123 142 140 140 145 137 115 109 95 46 283 264 250 275 233 208 226 215 209 216 213 202 154 162 190 198 208 228 233 266 290 101 91 322 66 69 103 101 71 24 299 309 52 229 247 198 223 289 261 219 167 135 149 162 192 244 258 284 298 261 188 195 221 237 224 194 194 194 195 201 199 195
357 353 351 349 347 346 347 345 344 343 340 345 358 25 69 88 105 125 134 132 132 113 66 349 43 28 268 262 239 244 271 228 227 207 200 208 212 204 165 82 125 109 56 38 344 319 346 14 55 63 25 51 122 110 118 224 203 186 185 206 243 204 213 227 231 200 170 152 160 168 220 249 245 264 269 214 174 197 216 217 226 213 189 186 186 193 194 188
358 356 354 350 347 346 347 345 344 342 340 354 16 90 88 88 90 98 128 123 118 131 302 223 165 140 231 247 258 274 296 280 226 201 189 194 201 200 203 25 93 95 70 73 336 348 95 23 46 123 231 172 188 180 189 201 165 168 183 169 182 196 235 231 217 197 172 153 174 182 209 238 240 251 211 165 163 210 227 194 212 238 202 181 176 181 186 184
357 357 356 353 348 345 346 344 343 341 343 357 23 131 77 55 53 19 173 165 211 221 245 218 192 216 272 256 275 298 300 253 206 201 185 185 166 146 154 12 41 51 84 156 225 331 96 136 258 211 205 206 210 216 216 200 129 142 162 159 192 206 253 255 221 202 169 147 202 199 221 243 236 247 207 156 155 210 228 194 201 223 217 191 177 179 183 183
357 357 356 354 349 346 346 342 342 341 345 357 20 127 92 104 72 317 296 282 248 225 235 232 203 227 255 236 269 45 59 34 300 295 171 176 141 116 180 55 66 28 291 185 169 7 61 214 250 211 192 210 211 217 233 270 19 116 150 187 244 235 240 250 210 193 176 157 220 190 217 252 240 242 223 159 162 205 211 198 201 206 220 213 184 186 182 171
357 355 354 354 350 347 345 341 341 343 350 358 37 104 128 134 348 261 229 306 279 229 221 233 212 244 257 255 264 55 66 9 318 332 158 159 132 146 200 79 109 185 284 104 71 3 15 259 258 217 161 174 184 184 172 208 241 211 134 150 262 249 216 268 354 166 176 187 249 189 198 248 251 242 229 180 179 208 202 194 201 195 201 216 201 196 185 169
356 353 352 352 350 347 344 340 339 356 353 353 90 112 116 337 339 251 171 290 289 258 209 210 194 230 255 271 244 177 114 191 252 287 173 152 134 170 144 90 127 147 93 132 150 114 341 254 246 189 155 156 185 187 157 189 249 180 147 160 255 231 171 256 304 140 159 175 189 166 190 266 270 253 244 208 197 212 192 186 207 199 193 204 204 199 191 180
354 352 350 349 349 348 343 340 349 11 349 346 140 117 356 336 350 164 165 293 292 293 225 194 183 202 219 244 192 162 163 190 188 252 176 152 133 152 153 135 130 136 193 174 156 166 238 248 226 137 154 166 201 220 165 193 270 226 184 201 241 221 174 197 181 134 71 334 122 108 44 304 255 191 217 223 212 219 176 154 183 222 209 206 208 219 216 197
353 351 349 347 347 346 343 346 93 355 343 347 147 19 339 340 348 162 159 25 306 295 274 185 190 212 200 176 164 163 150 198 207 219 173 158 150 139 178 171 133 193 215 165 141 185 252 253 192 211 245 186 208 238 192 183 238 304 225 215 229 216 153 132 140 121 49 314 238 108 70 295 292 229 218 212 193 208 199 162 184 212 212 201 203 219 230 227
350 350 348 345 343 344 347 29 4 342 337 170 139 333 331 339 345 163 133 34 313 288 312 166 235 191 175 150 166 146 99 259 231 181 160 167 163 129 146 200 98 207 191 141 141 204 259 250 140 195 225 184 200 245 217 174 151 319 243 209 215 193 141 145 152 132 113 233 273 102 140 269 312 285 233 194 187 212 219 205 204 201 193 199 205 209 217 224
347 347 346 342 341 344 345 277 318 332 326 251 321 326 326 338 342 167 104 30 324 281 139 274 292 167 171 173 167 130 126 261 217 145 164 176 174 94 127 210 180 202 176 118 206 244 191 149 115 146 150 150 190 241 221 159 134 254 259 164 161 161 155 160 148 123 165 172 358 27 119 229 304 282 269 140 171 224 235 229 230 213 194 198 208 210 211 215
344 345 344 340 339 340 325 287 310 314 244 287 313 320 326 334 329 147 75 46 290 301 152 283 69 159 152 161 170 146 186 208 112 216 194 168 177 79 138 221 185 181 181 132 219 262 171 167 195 168 118 152 206 215 180 153 152 247 276 92 121 135 135 139 117 88 87 85 5 311 127 138 270 281 345 72 168 235 233 224 228 221 208 199 199 207 211 217
342 343 342 337 336 336 320 286 293 271 264 290 313 321 324 330 50 87 63 127 264 325 176 25 100 156 57 112 213 291 0 59 121 268 54 147 182 87 154 212 159 155 217 148 215 262 228 191 194 164 146 214 224 193 166 160 176 211 98 80 75 79 85 89 89 83 47 48 250 249 196 139 278 281 8 72 219 240 229 225 227 220 216 207 200 203 204 211
340 341 340 336 333 331 311 286 275 255 291 302 314 322 330 22 71 73 61 210 314 334 292 46 166 113 93 123 262 301 319 311 61 54 41 115 210 42 130 173 110 123 319 0 260 261 266 201 161 174 207 218 206 147 160 161 150 125 93 82 71 59 62 63 54 78 67 321 263 229 185 148 300 281 225 176 213 212 197 219 230 219 219 216 211 204 193 196
338 339 338 334 328 317 287 282 245 191 309 313 321 336 26 55 64 98 188 247 265 333 22 22 314 67 120 146 260 263 209 296 50 94 94 127 62 49 47 346 63 58 4 343 296 289 312 317 203 243 223 186 121 68 70 136 128 100 84 94 83 30 22 33 4 36 104 257 270 236 173 129 246 262 242 228 230 209 189 197 199 197 208 214 212 202 186 187
337 338 337 332 326 299 246 236 231 272 299 312 334 16 78 70 45 157 243 303 318 284 354 157 333 24 140 157 253 227 182 253 210 123 146 157 142 166 196 202 174 55 345 283 289 332 314 252 246 301 253 164 133 89 50 45 67 75 90 96 79 36 19 29 333 336 210 242 253 193 150 123 247 242 239 245 246 228 205 196 188 184 189 200 205 194 179 183
335 338 337 334 331 308 263 246 251 266 283 307 14 46 82 91 225 210 253 318 23 275 295 108 325 306 173 162 223 214 175 233 223 143 136 126 153 217 242 207 166 121 202 218 293 353 319 296 308 304 260 175 144 142 136 147 131 130 144 131 110 102 75 28 266 284 258 264 264 179 166 221 278 261 234 245 254 241 215 194 186 178 172 180 187 174 167 184
335 339 339 337 342 342 319 225 221 246 266 87 68 66 89 138 233 223 251 268 272 305 344 328 311 322 139 175 231 187 166 246 198 132 105 89 126 242 270 236 173 122 124 171 236 165 215 308 258 193 216 173 170 176 163 149 150 178 178 136 140 148 144 187 207 195 216 270 346 147 163 194 244 258 255 256 257 237 196 156 146 140 138 141 140 141 152 182
335 340 343 348 0 359 355 207 206 210 152 85 65 76 137 206 243 222 231 252 295 326 316 291 25 43 13 306 272 181 173 245 152 108 112 139 170 207 211 217 191 138 127 169 238 182 154 263 251 243 135 154 192 208 138 118 122 206 155 108 156 177 145 144 179 175 161 121 36 240 212 215 213 255 286 310 2 136 125 124 119 109 108 113 125 155 161 178
338 344 349 358 1 359 358 243 193 173 114 81 69 114 192 220 216 169 201 231 356 325 331 342 65 73 348 316 299 220 170 214 152 114 166 190 199 211 209 219 190 170 164 167 211 180 125 269 276 313 296 192 196 183 142 134 160 162 129 165 216 171 122 112 135 110 90 116 237 265 270 304 320 280 314 31 85 116 107 122 123 116 123 126 143 171 171 176
340 343 340 342 351 351 5 76 127 118 74 88 103 202 221 230 190 177 212 10 8 16 38 6 337 79 248 308 293 264 83 68 161 148 211 235 239 206 209 245 189 184 192 183 216 210 166 274 287 284 266 269 208 139 87 47 130 125 179 202 191 110 97 98 104 23 44 139 276 306 265 296 326 273 317 28 186 197 153 131 119 116 137 146 156 166 170 174
333 333 320 340 354 353 144 91 85 62 64 89 117 239 218 224 198 193 235 33 0 26 75 197 253 287 155 172 270 261 141 168 195 171 181 218 263 203 179 224 192 194 201 181 222 246 145 280 291 264 245 291 354 99 51 1 68 114 175 177 115 124 144 79 115 120 101 167 287 307 293 264 208 227 241 201 200 202 193 154 135 151 168 167 166 165 163 156
333 334 317 14 19 32 137 60 17 48 68 102 221 249 224 246 251 231 231 24 59 113 151 226 233 320 213 172 208 239 177 183 186 174 168 176 248 243 172 191 209 212 198 170 177 220 128 197 288 287 253 286 7 70 131 289 348 50 107 113 57 123 158 150 140 146 140 150 241 298 328 261 224 216 192 194 200 188 180 177 171 181 188 187 182 172 162 157
356 353 233 36 21 12 224 353 15 71 82 180 199 224 246 263 274 261 241 220 192 178 204 218 197 235 265 223 220 224 183 184 172 162 194 179 220 266 236 188 184 237 191 163 172 209 124 155 257 286 297 288 338 209 183 183 166 85 106 200 7 72 126 146 94 94 128 139 177 177 308 264 249 208 183 190 194 186 180 178 181 187 189 196 197 176 163 162
353 11 217 313 357 338 236 3 23 115 122 214 202 239 266 276 285 287 264 211 206 232 214 196 199 209 233 260 257 216 165 169 170 166 223 194 195 251 231 185 167 122 95 110 159 220 174 162 214 281 323 235 236 252 203 184 173 155 167 193 173 125 124 118 68 304 115 121 168 157 194 267 260 207 196 189 180 185 182 171 175 186 187 195 203 182 165 158
10 354 269 324 349 336 133 65 291 145 130 204 219 226 250 294 273 277 286 227 211 241 231 213 223 212 211 226 227 195 160 159 193 187 205 198 189 200 215 204 178 149 122 144 230 217 163 126 165 248 256 232 252 277 228 191 144 125 145 171 152 131 123 126 170 219 121 96 150 125 154 269 268 238 231 201 175 177 174 169 174 181 185 190 193 181 160 140
81 295 287 332 358 6 105 59 289 259 189 243 268 243 247 299 256 264 305 287 230 225 211 244 219 206 224 217 192 185 188 188 195 191 206 213 202 217 233 269 149 144 125 175 249 214 140 119 160 261 296 302 298 308 341 57 82 101 126 140 145 152 138 145 168 164 133 149 144 86 278 267 282 299 277 185 160 160 166 174 174 173 181 184 182 178 156 131
280 282 279 331 355 8 140 203 256 227 257 306 343 309 301 277 232 262 302 276 259 208 264 264 220 218 243 206 169 190 193 184 213 210 198 186 197 227 241 17 66 138 153 194 202 178 195 169 124 133 331 329 325 340 349 349 36 172 198 146 146 122 107 117 116 88 113 191 154 125 231 255 278 325 19 122 140 154 174 182 174 170 175 177 178 173 153 138
309 277 255 313 348 22 140 187 122 182 289 3 346 290 298 280 254 250 251 254 255 225 254 274 254 247 267 212 72 249 198 181 227 229 174 190 266 277 270 10 68 149 232 240 202 173 179 179 141 141 175 224 219 211 248 261 234 215 173 159 156 125 124 136 107 87 140 200 150 148 214 258 287 347 59 122 145 157 177 185 184 182 177 175 173 165 158 152
358 341 301 315 347 32 74 43 58 66 7 21 328 280 233 295 293 282 249 241 315 318 271 283 324 0 4 20 29 310 273 241 195 195 141 217 262 286 316 342 69 270 303 296 154 122 109 190 190 164 179 198 196 212 226 166 145 195 188 171 164 132 125 118 109 140 181 159 171 216 201 222 270 262 141 168 167 170 181 179 187 195 181 175 170 160 157 153
63 352 357 347 335 5 23 23 36 22 338 341 305 286 273 286 299 314 318 317 336 337 330 356 25 38 10 352 10 286 292 347 54 180 172 226 268 289 321 345 333 318 329 19 132 117 109 229 216 173 197 213 200 223 251 173 168 185 174 170 172 149 131 123 143 186 154 128 226 247 181 178 243 221 193 194 180 178 187 184 188 193 182 170 154 144 147 148
46 356 22 34 299 339 357 343 354 346 315 299 289 291 299 316 0 346 326 323 337 350 7 4 8 7 328 295 225 263 325 21 18 314 280 275 311 324 336 331 279 332 354 31 96 125 133 198 205 176 228 241 209 229 276 254 201 176 166 173 166 158 165 164 175 184 152 148 224 220 170 193 238 216 196 196 186 185 190 186 181 174 162 152 144 148 157 161
20 9 344 0 292 245 281 302 314 324 322 311 298 305 318 27 36 347 307 325 341 350 36 19 334 332 326 315 151 144 3 58 79 302 267 252 336 346 343 310 276 337 24 30 337 101 132 232 228 184 251 269 232 215 212 238 273 201 169 175 165 170 182 176 174 184 164 158 194 169 175 212 233 205 198 196 185 182 175 163 155 153 157 158 158 164 170 173
20 356 339 354 321 270 268 291 320 338 334 321 288 300 339 51 29 337 298 273 305 316 28 26 326 319 321 340 77 113 49 296 247 265 217 163 350 269 211 225 248 327 16 31 332 354 109 244 265 135 252 292 296 247 160 174 238 217 167 156 160 168 176 148 131 168 165 126 96 127 170 238 255 204 171 154 146 143 144 159 167 167 166 165 167 174 175 177
345 305 328 347 308 306 293 300 354 3 329 325 328 324 341 25 15 332 288 233 185 349 25 359 323 313 322 354 37 71 316 304 273 265 236 200 250 238 226 218 199 322 354 13 342 2 54 53 0 55 88 284 313 338 85 67 59 219 232 188 168 168 178 171 162 181 182 163 116 105 147 244 254 159 127 136 152 157 167 177 177 173 171 170 174 180 180 181
357 328 345 4 284 328 344 309 338 0 266 297 5 342 330 344 351 344 314 300 34 50 12 338 316 321 337 347 356 334 318 297 269 267 255 234 242 241 253 246 186 185 305 25 27 12 90 90 24 65 114 268 304 340 43 63 62 270 256 200 179 176 174 162 168 207 187 149 133 153 207 221 191 143 138 150 166 175 185 186 179 176 176 179 182 182 179 182